Location: Goettingen
(51.5300°N, 9.9433°E)
Time: 15:33:53
(UTC+02:00)

ISS - Pass Details

Date: 26 September 2022
Orbit: 414 x 417 km, 51.6° (Epoch: 28 September)

Event Time Altitude Azimuth Distance (km) Brightness Sun altitude
Rises 19:42:35 0° 269° (W) 2,360 2.6 -6.0°
Reaches altitude 10° 19:44:41 10° 270° (W) 1,497 0.9 -6.3°
Maximum altitude 19:48:03 86° 358° (N) 424 -3.7 -6.8°
Drops below altitude 10° 19:51:25 10° 89° (E) 1,498 -1.6 -7.3°
Enters shadow 19:51:29 10° 89° (E) 1,526 -1.6 -7.3°
